TimeIST,TemperatureF,Dew PointF,Humidity,Sea Level PressureIn,VisibilityMPH,Wind Direction,Wind SpeedMPH,Gust SpeedMPH,PrecipitationIn,Events,Conditions,WindDirDegrees,DateUTC
12:00 AM,51.8,51.8,100,29.95,6.2,SSE,12.7,-,N/A,,Mostly Cloudy,150,2012-10-20 23:00:00
12:30 AM,51.8,51.8,100,29.95,6.2,SSE,12.7,-,N/A,,Mostly Cloudy,160,2012-10-20 23:30:00
1:00 AM,53,53,99,29.96,12,SSE,13.4,,,,Mostly Cloudy,150,2012-10-21 00:00:00
1:00 AM,53.6,53.6,100,29.95,6.2,SSE,13.8,-,N/A,,Mostly Cloudy,150,2012-10-21 00:00:00
1:30 AM,53.6,53.6,100,29.95,6.2,SSE,13.8,-,N/A,,Mostly Cloudy,150,2012-10-21 00:30:00
2:00 AM,53.6,53.6,100,29.95,6.2,SSE,12.7,-,N/A,,Mostly Cloudy,150,2012-10-21 01:00:00
2:30 AM,53.6,53.6,100,29.95,6.2,SSE,9.2,-,N/A,,Mostly Cloudy,150,2012-10-21 01:30:00
3:00 AM,53.6,51.8,94,29.95,6.2,SSE,10.4,-,N/A,,Mostly Cloudy,160,2012-10-21 02:00:00
3:30 AM,53.6,53.6,100,29.95,6.2,SSE,13.8,-,N/A,,Mostly Cloudy,150,2012-10-21 02:30:00
4:00 AM,51.8,51.8,100,29.95,6.2,SSE,12.7,-,N/A,,Mostly Cloudy,150,2012-10-21 03:00:00
4:30 AM,51.8,51.8,100,29.95,6.2,SE,12.7,-,N/A,,Mostly Cloudy,140,2012-10-21 03:30:00
5:00 AM,53.6,51.8,94,29.95,6.2,SE,13.8,-,N/A,,Mostly Cloudy,140,2012-10-21 04:00:00
5:30 AM,53.6,51.8,94,29.95,6.2,SE,12.7,-,N/A,,Mostly Cloudy,140,2012-10-21 04:30:00
6:00 AM,51.8,51.8,100,29.95,6.2,SE,12.7,-,N/A,,Mostly Cloudy,140,2012-10-21 05:00:00
6:30 AM,51.8,51.8,100,29.95,6.2,SE,10.4,-,N/A,,Mostly Cloudy,140,2012-10-21 05:30:00
7:00 AM,52,51,94,29.99,12,SE,11.2,,,,Mostly Cloudy,130,2012-10-21 06:00:00
7:00 AM,51.8,50.0,94,29.98,6.2,SE,10.4,-,N/A,,Mostly Cloudy,130,2012-10-21 06:00:00
7:30 AM,51.8,50.0,94,29.98,6.2,SE,10.4,-,N/A,,Scattered Clouds,130,2012-10-21 06:30:00
8:00 AM,50.0,50.0,100,29.98,6.2,SE,9.2,-,N/A,,Scattered Clouds,130,2012-10-21 07:00:00
8:30 AM,50.0,50.0,100,29.98,6.2,SE,11.5,-,N/A,,Scattered Clouds,130,2012-10-21 07:30:00
9:00 AM,51.8,50.0,94,29.98,6.2,SE,10.4,-,N/A,,Partly Cloudy,130,2012-10-21 08:00:00
9:30 AM,51.8,50.0,94,30.01,6.2,SE,10.4,-,N/A,,Scattered Clouds,130,2012-10-21 08:30:00
10:00 AM,53.6,51.8,94,30.01,6.2,SE,12.7,-,N/A,,Scattered Clouds,130,2012-10-21 09:00:00
10:30 AM,53.6,50.0,88,30.01,6.2,SE,15.0,-,N/A,,Scattered Clouds,130,2012-10-21 09:30:00
11:00 AM,53.6,50.0,88,30.01,6.2,SE,16.1,-,N/A,,Scattered Clouds,130,2012-10-21 10:00:00
11:30 AM,53.6,50.0,88,30.01,6.2,ESE,15.0,-,N/A,,Scattered Clouds,120,2012-10-21 10:30:00
12:00 PM,53.6,50.0,88,30.01,6.2,SE,18.4,-,N/A,,Mostly Cloudy,130,2012-10-21 11:00:00
12:30 PM,55.4,51.8,88,30.01,6.2,ESE,17.3,-,N/A,,Scattered Clouds,120,2012-10-21 11:30:00
1:00 PM,54,50,81,30.01,28,ESE,17.9,,,,Partly Cloudy,120,2012-10-21 12:00:00
1:00 PM,53.6,50.0,88,30.01,6.2,ESE,17.3,-,N/A,,Scattered Clouds,120,2012-10-21 12:00:00
1:30 PM,55.4,51.8,88,29.98,6.2,ESE,17.3,-,N/A,,Scattered Clouds,120,2012-10-21 12:30:00
2:00 PM,55.4,51.8,88,29.98,6.2,ESE,16.1,-,N/A,,Mostly Cloudy,120,2012-10-21 13:00:00
2:30 PM,55.4,51.8,88,29.98,6.2,ESE,13.8,-,N/A,,Mostly Cloudy,120,2012-10-21 13:30:00
3:00 PM,53.6,51.8,94,29.98,6.2,SE,16.1,-,N/A,,Mostly Cloudy,130,2012-10-21 14:00:00
3:30 PM,53.6,51.8,94,29.98,6.2,SE,15.0,-,N/A,,Mostly Cloudy,130,2012-10-21 14:30:00
4:00 PM,53.6,51.8,94,29.98,6.2,ESE,15.0,-,N/A,,Mostly Cloudy,120,2012-10-21 15:00:00
4:30 PM,53.6,51.8,94,29.98,6.2,ESE,15.0,-,N/A,,Mostly Cloudy,120,2012-10-21 15:30:00
5:00 PM,53.6,51.8,94,30.01,6.2,ESE,15.0,-,N/A,,Mostly Cloudy,120,2012-10-21 16:00:00
5:30 PM,53.6,51.8,94,30.01,6.2,ESE,13.8,-,N/A,,Mostly Cloudy,120,2012-10-21 16:30:00
6:00 PM,53.6,51.8,94,30.01,6.2,ESE,15.0,-,N/A,,Mostly Cloudy,120,2012-10-21 17:00:00
6:30 PM,51.8,51.8,100,30.01,6.2,ESE,13.8,-,N/A,,Mostly Cloudy,110,2012-10-21 17:30:00
7:00 PM,53,52,97,30.03,7,ESE,13.4,,,,Mist,110,2012-10-21 18:00:00
7:00 PM,53.6,51.8,94,30.01,6.2,ESE,13.8,-,N/A,,Mostly Cloudy,110,2012-10-21 18:00:00
7:30 PM,53.6,51.8,94,30.01,6.2,ESE,13.8,-,N/A,,Mostly Cloudy,110,2012-10-21 18:30:00
8:00 PM,53.6,51.8,94,30.04,6.2,ESE,12.7,-,N/A,,Mostly Cloudy,110,2012-10-21 19:00:00
8:30 PM,53.6,51.8,94,30.04,6.2,ESE,13.8,-,N/A,,Mostly Cloudy,110,2012-10-21 19:30:00
9:00 PM,51.8,51.8,100,30.04,6.2,East,12.7,-,N/A,,Mostly Cloudy,100,2012-10-21 20:00:00
9:30 PM,53.6,53.6,100,30.04,6.2,East,11.5,-,N/A,,Mostly Cloudy,100,2012-10-21 20:30:00
10:00 PM,53.6,53.6,100,30.04,6.2,ESE,13.8,-,N/A,,Mostly Cloudy,110,2012-10-21 21:00:00
10:30 PM,53.6,53.6,100,30.04,6.2,ESE,12.7,-,N/A,,Mostly Cloudy,120,2012-10-21 21:30:00
11:00 PM,53.6,53.6,100,30.04,6.2,ESE,11.5,-,N/A,,Mostly Cloudy,120,2012-10-21 22:00:00
11:30 PM,53.6,51.8,94,30.04,6.2,ESE,11.5,-,N/A,,Mostly Cloudy,120,2012-10-21 22:30:00